Regional Weather Roundup
Issued by NWS Boston, MA

Current Version | Previous Version | Text Only | Print | Product List | Glossary Off
Versions: 1 2 3 4 5 6 7 8 9 10 11 12 13 14 15 16 17 18 19 20 21 22 23 24 25 26 27

000
ASUS41 KBOX 260510
RWRBOX

REGIONAL WEATHER ROUNDUP
NATIONAL WEATHER SERVICE TAUNTON MA
100 AM EDT SUN MAR 26 2017

NOTE:  "FAIR" INDICATES FEW OR NO CLOUDS BELOW 12,000 FEET WITH NO
SIGNIFICANT WEATHER AND/OR OBSTRUCTIONS TO VISIBILITY.

MAZALL-260600-
EASTERN MASSACHUSETTS

CITY           SKY/WX    TMP DP  RH WIND       PRES   REMARKS
BOSTON         CLOUDY    34  29  82 N9        30.43S WCI  27
BEVERLY        CLOUDY    30  28  92 N6        30.43R WCI  24
LAWRENCE       CLOUDY    28  28 100 CALM      30.45R
BEDFORD        CLOUDY    28  24  85 CALM      30.43R
BLUE HILL        N/A     30  28  92 N12       30.39R WCI  20
NORWOOD        CLOUDY    25  25 100 CALM      30.43S FOG
MARSHFIELD     CLEAR     32  32 100 N5        30.42S WCI  27
PLYMOUTH       FOG       28  27  96 CALM      30.42S VSB 1/4
TAUNTON        FOG       26  23  88 CALM      30.42R VSB 3/4
NEW BEDFORD    CLOUDY    31  28  89 N3        30.42R FOG
$$

MAZALL-260600-
CAPE COD AND THE ISLANDS

CITY           SKY/WX    TMP DP  RH WIND       PRES   REMARKS
FALMOUTH       CLEAR     32  30  93 MISG      30.42R
HYANNIS        CLEAR     33  32  96 N6        30.40R WCI  28
CHATHAM        PTCLDY    35  33  92 CALM      30.42R
PROVINCETOWN   CLEAR     37  35  92 N7        30.43R WCI  32
NANTUCKET      CLEAR     34  32  92 N7        30.40R WCI  28
MARTHAS VNYRD  MOCLDY    34  32  92 N6        30.41R WCI  29
$$

MAZALL-260600-
CENTRAL AND WESTERN MASSACHUSETTS

CITY           SKY/WX    TMP DP  RH WIND       PRES   REMARKS
WORCESTER      CLEAR     31  24  75 N9        30.39R WCI  23
FITCHBURG      CLOUDY   N/A N/A N/A CALM      30.44R FOG
ORANGE         CLEAR     26  26 100 CALM      30.42S
SPRINGFIELD    CLEAR     25  23  93 CALM      30.42S FOG
WESTFIELD      CLEAR     27  27 100 N6        30.43S FOG     WCI  20
NORTH ADAMS    CLOUDY    30  28  92 CALM      30.42F
PITTSFIELD     CLOUDY    31  29  92 CALM      30.37F
$$

RIZALL-260600-
RHODE ISLAND

CITY           SKY/WX    TMP DP  RH WIND       PRES   REMARKS
PROVIDENCE     CLOUDY    34  30  85 N7        30.43S WCI  28
NEWPORT        PTCLDY    34  33  96 N6        30.41S WCI  29
BLOCK ISLAND   PTCLDY    37  35  92 NE7       30.42S WCI  32
SMITHFIELD     CLEAR     30  29  96 N8        30.41S WCI  22
WESTERLY       CLEAR     34  32  92 CALM      30.42S
$$

CTZALL-260600-
CONNECTICUT

CITY           SKY/WX    TMP DP  RH WIND       PRES   REMARKS
BRADLEY INTL   PTCLDY    32  31  96 NE6       30.43R WCI  26
HARTFORD       CLOUDY    31  31 100 CALM      30.44R FOG
BRIDGEPORT     CLOUDY    39  33  79 NE8       30.42S
DANBURY        CLOUDY    39  36  89 E9        30.41S
GROTON         CLEAR     35  32  88 CALM      30.42R
NEW HAVEN      CLOUDY    34  32  92 N5        30.43R WCI  30
CHESTER        NOT AVBL
MERIDEN        CLOUDY    36  32  85 N3        30.43R
WILLIMANTIC    CLEAR     32  30  92 CALM      30.43S FOG
OXFORD         CLOUDY    36  28  75 NE7       30.40S WCI  30
$$

MEZ002-015-021-024-NHZ003-005-008-011-012-014-VTZ005-008-260600-
NORTHERN NEW ENGLAND

CITY           SKY/WX    TMP DP  RH WIND       PRES   REMARKS
PORTLAND ME    CLEAR     30  15  53 N6        30.44R WCI  24
BANGOR ME      CLEAR     28   7  41 N9        30.45R WCI  19
CONCORD NH     CLEAR     23  21  92 CALM      30.44R FOG
MANCHESTER NH  NOT AVBL
NASHUA NH      CLOUDY    27  27 100 NW3       30.44
PORTSMOUTH NH  PTCLDY    29  28  96 NW5       30.43R WCI  24
JAFFREY NH     NOT AVBL
KEENE NH       CLOUDY    27  27 100 CALM      30.44S FOG
BURLINGTON VT  CLOUDY    22  17  81 CALM      30.47F
MT. WASHINGTON PTCLDY    18 -18  19 NW37        N/A  WCI  -4
$$

NYZ052-076-260600-
EASTERN NEW YORK

CITY           SKY/WX    TMP DP  RH WIND       PRES   REMARKS
ALBANY         PTCLDY    31  22  69 N7        30.46F WCI  24
NEW YORK CITY  CLOUDY    44  34  67 E16       30.40S
$$

ANZALL-260600-
MARINE OBSERVATIONS

STATION/POSITION TIME  TEMP    WIND        PRES    VSBY  WAVE
                       AIR SEA DIR/SP/G                  HT/PER
                 (UTC) (F)     (DEG/KT/KT) (MB)    (MI)  (FT/S)
BOSTON BUOY      0450   38 40  360/ 14/ 16 1029.7R         1/ 5
BUZZARDS BAY     0400   36      30/  7/  8 1030.4R
NANTUCKET SOUND  0450      39              1029.6R         1
MASS BAY-STELLWA 0404   37 39  340/ 10/ 12 1028.9R         1/ 9
ISLE OF SHOALS   0400   35     330/ 10/ 11 1030.2R
S OF BLOCK IS    0455      40                N/A           3/ 8
$$

......................KEY.........................
  SKY/WX - SKY CONDITION/PRESENT WEATHER
  TMP    - TEMPERATURE IN FAHRENHEIT
  DWPT   - DEWPOINT IN FAHRENHEIT
  RH     - RELATIVE HUMIDITY IN PERCENT
  WIND   - DIRECTION AND SPEED IN MPH
  PRES   - MEAN SEA LEVEL PRESSURE IN INCHES OF HG
  WCI    - WIND CHILL INDEX
  VSB    - VISIBILITY IN MILES
  HX     - HEAT INDEX
  TC     - TEMPERATURE IN CELSIUS
  VRB    - VARIABLE WIND DIRECTION
  N/A    - NOT AVAILABLE




USA.gov is the U.S. government's official web portal to all federal, state and local government web resources and services.